Frankfurt, Germany

9:18 PM CEST on June 20, 2018 (GMT +0200)
Frankfurt / Main

Weather History for EDDF - November, 2017

Change the Weather History Date:

Tuesday, November 14, 2017

  Actual Average Record
Temperature  
Mean Temperature 39 °F -  
Max Temperature 48 °F 42 °F 66 °F (2010)
Min Temperature 30 °F 33 °F 26 °F (2011)
Degree Days  
Heating Degree Days 26    
Moisture  
Dew Point 34 °F    
Average Humidity 88    
Maximum Humidity 100    
Minimum Humidity 58    
Precipitation  
Precipitation 0.00 in - - ()
Sea Level Pressure  
Sea Level Pressure 30.28 in    
Wind  
Wind Speed 4 mph ()    
Max Wind Speed 8 mph    
Max Gust Speed -    
Visibility 5.4 miles    
Events Fog , Rain    
Averages and records for this station are not official NWS values.
T = Trace of Precipitation, MM = Missing Value Source: Averaged Metar Reports

Daily Weather History Graph

Daily Weather History Graph

Search for Another Location

Airport or City:

Astronomy

Nov. 14, 2017 Rise Set
Actual Time 7:37 AM CET 4:42 PM CET
Civil Twilight 7:01 AM CET 5:17 PM CET
Nautical Twilight 6:22 AM CET 5:57 PM CET
Astronomical Twilight 5:44 AM CET 6:35 PM CET
Moon 2:50 AM CET (11/14) 3:26 PM CET (11/14)
Length of Visible Light 10h 16m
Length of Day
9h 05m
Waning Crescent, 15% of the Moon is Illuminated
Nov 14
Waning Crescent
Nov 18
New
Nov 26
First Quarter
Dec 3
Full
Dec 10
Last Quarter

Hourly Weather History & Observations

Time (CET) Temp. Windchill Dew Point Humidity Pressure Visibility Wind Dir Wind Speed Gust Speed Precip Events Conditions
12:50 AM 30.2 °F - 28.4 °F 93% 30.21 in 6.2 mi Variable 2.3 mph - N/A   Partly Cloudy
1:20 AM 30.2 °F - 30.2 °F 100% 30.21 in 6.2 mi Variable 2.3 mph - N/A Fog Shallow Fog
1:50 AM 30.2 °F - 30.2 °F 100% 30.21 in 6.2 mi Variable 1.2 mph - N/A   Mostly Cloudy
2:20 AM 32.0 °F - 30.2 °F 93% 30.21 in 6.2 mi Variable 1.2 mph - N/A   Mostly Cloudy
2:50 AM 32.0 °F - 32.0 °F 100% 30.21 in 6.2 mi Variable 2.3 mph - N/A   Mostly Cloudy
3:20 AM 32.0 °F - 30.2 °F 93% 30.21 in 6.2 mi SE 2.3 mph - N/A   Mostly Cloudy
3:50 AM 32.0 °F 27.5 °F 30.2 °F 93% 30.21 in 6.2 mi SSW 4.6 mph - N/A   Scattered Clouds
4:20 AM 30.2 °F - 30.2 °F 100% 30.21 in 6.2 mi Variable 1.2 mph - N/A   Scattered Clouds
4:50 AM 30.2 °F - 30.2 °F 100% 30.24 in 6.2 mi Variable 1.2 mph - N/A   Scattered Clouds
5:20 AM 30.2 °F 26.7 °F 28.4 °F 93% 30.24 in 6.2 mi SW 3.5 mph - N/A Fog Shallow Fog
5:50 AM 30.2 °F - 28.4 °F 93% 30.24 in 6.2 mi ESE 2.3 mph - N/A   Partly Cloudy
6:20 AM 30.2 °F - 28.4 °F 93% 30.24 in 3.7 mi SE 2.3 mph - N/A   Scattered Clouds
6:50 AM 30.2 °F - 28.4 °F 93% 30.27 in 2.5 mi SE 1.2 mph - N/A   Scattered Clouds
7:20 AM 30.2 °F - 28.4 °F 93% 30.27 in 0.2 mi SSE 2.3 mph - N/A Fog Light Freezing Fog
7:50 AM 30.2 °F - 30.2 °F 100% 30.27 in 0.4 mi Variable 1.2 mph - N/A Fog Light Freezing Fog
8:20 AM 32.0 °F - 30.2 °F 93% 30.27 in 0.9 mi Variable 1.2 mph - N/A   Scattered Clouds
8:50 AM 32.0 °F 28.7 °F 30.2 °F 93% 30.30 in 2.2 mi SW 3.5 mph - N/A   Mostly Cloudy
9:20 AM 33.8 °F - 33.8 °F 100% 30.30 in - Variable 2.3 mph - N/A   Mostly Cloudy
9:50 AM 35.6 °F 32.8 °F 35.6 °F 100% 30.30 in - SW 3.5 mph - N/A   Mostly Cloudy
10:20 AM 37.4 °F 33.8 °F 35.6 °F 93% 30.30 in 4.3 mi SW 4.6 mph - N/A   Mostly Cloudy
10:50 AM 39.2 °F 35.0 °F 37.4 °F 93% 30.30 in 5.6 mi South 5.8 mph - N/A   Mostly Cloudy
11:20 AM 41.0 °F 38.0 °F 37.4 °F 87% 30.30 in 6.2 mi SSW 4.6 mph - N/A   Mostly Cloudy
11:50 AM 44.6 °F 41.4 °F 39.2 °F 81% 30.30 in 6.2 mi SSW 5.8 mph - N/A   Scattered Clouds
12:20 PM 44.6 °F 40.2 °F 37.4 °F 76% 30.30 in 6.2 mi SSW 8.1 mph - N/A   Scattered Clouds
12:50 PM 46.4 °F 43.5 °F 39.2 °F 76% 30.30 in 6.2 mi SW 5.8 mph - N/A   Scattered Clouds
1:20 PM 46.4 °F 43.5 °F 39.2 °F 76% 30.30 in 6.2 mi SW 5.8 mph - N/A   Partly Cloudy
1:50 PM 46.4 °F 43.5 °F 37.4 °F 71% 30.27 in 6.2 mi West 5.8 mph - N/A   Partly Cloudy
2:20 PM 48.2 °F - 37.4 °F 66% 30.27 in 6.2 mi SW 6.9 mph - N/A   Partly Cloudy
2:50 PM 48.2 °F - 35.6 °F 62% 30.27 in 6.2 mi SSW 8.1 mph - N/A   Mostly Cloudy
3:20 PM 48.2 °F - 33.8 °F 58% 30.27 in 6.2 mi WSW 8.1 mph - N/A   Mostly Cloudy
3:50 PM 46.4 °F 42.9 °F 35.6 °F 66% 30.27 in 6.2 mi SW 6.9 mph - N/A   Mostly Cloudy
4:20 PM 44.6 °F 41.4 °F 37.4 °F 76% 30.27 in 6.2 mi South 5.8 mph - N/A   Mostly Cloudy
4:50 PM 42.8 °F 38.6 °F 37.4 °F 81% 30.27 in 6.2 mi South 6.9 mph - N/A   Mostly Cloudy
5:20 PM 42.8 °F 38.0 °F 37.4 °F 81% 30.27 in 6.2 mi South 8.1 mph - N/A   Mostly Cloudy
5:50 PM 41.0 °F 35.8 °F 37.4 °F 87% 30.30 in - South 8.1 mph - N/A   Clear
6:20 PM 41.0 °F 35.8 °F 37.4 °F 87% 30.30 in - South 8.1 mph - N/A   Clear
6:50 PM 41.0 °F 35.8 °F 37.4 °F 87% 30.30 in - South 8.1 mph - N/A   Clear
7:20 PM 41.0 °F 37.1 °F 37.4 °F 87% 30.30 in - South 5.8 mph - N/A   Clear
7:50 PM 41.0 °F 36.4 °F 37.4 °F 87% 30.30 in - South 6.9 mph - N/A   Clear
8:20 PM 41.0 °F 37.1 °F 37.4 °F 87% 30.33 in - South 5.8 mph - N/A   Clear
8:50 PM 41.0 °F 36.4 °F 37.4 °F 87% 30.33 in 6.2 mi SSW 6.9 mph - N/A   Mostly Cloudy
9:20 PM 41.0 °F 35.8 °F 37.4 °F 87% 30.33 in 6.2 mi SSW 8.1 mph - N/A   Mostly Cloudy
9:50 PM 39.2 °F 35.0 °F 37.4 °F 93% 30.33 in 6.2 mi SSW 5.8 mph - N/A   Mostly Cloudy
10:20 PM 39.2 °F 35.9 °F 37.4 °F 93% 30.33 in 6.2 mi South 4.6 mph - N/A Rain Light Rain
10:50 PM 39.2 °F 35.0 °F 37.4 °F 93% 30.33 in 6.2 mi South 5.8 mph - N/A Rain Light Rain
11:20 PM 39.2 °F 33.6 °F 37.4 °F 93% 30.33 in 6.2 mi SSW 8.1 mph - N/A   Scattered Clouds
11:50 PM 39.2 °F 35.0 °F 37.4 °F 93% 30.33 in 6.2 mi SSW 5.8 mph - N/A   Mostly Cloudy